Regional Weather Roundup
Issued by NWS Bismarck, ND

Home | Current Version | Previous Version | Text Only | Print | Product List | Glossary On
Versions: 1 2 3 4 5 6 7 8 9 10 11 12 13 14 15 16 17 18 19 20 21 22 23 24 25 26 27 28 29 30 31 32 33 34 35 36 37 38 39 40 41 42 43 44 45 46 47 48 49 50
000
ASUS43 KBIS 060510
RWRBIS

NWR BROADCAST TEXT
NATIONAL WEATHER SERVICE BISMARCK ND
1100 PM CST MON DEC 05 2016

NOTE: "FAIR" INDICATES FEW OR NO CLOUDS BELOW 12,000 FEET WITH NO
SIGNIFICANT WEATHER AND/OR OBSTRUCTIONS TO VISIBILITY.


CITY           SKY/WX    TMP DP  RH WIND       PRES   REMARKS
WILLISTON      LGT SNOW  11   6  81 NW28G39   29.90R VSB 1   WCI -10
MINOT          LGT SNOW  23  21  92 NW22G31   29.65R VSB 3/4 WCI   8
MINOT AFB      NOT AVBL
BISMARCK       LGT SNOW  14  11  87 W29G43    29.69S FOG     WCI  -7
DICKINSON      LGT SNOW   5   1  83 W36G45    29.79S VSB 3/4 WCI -21
GARRISON         N/A     15  12  88 NW39G54   29.65S WCI  -8
HETTINGER ARPT CLOUDY     7   1  76 W35G44    29.83S HAZE    WCI -18
JAMESTOWN      LGT SNOW  20  17  88 W20G29    29.50R VSB 1   WCI   4
BEACH          LGT SNOW   5   1  85 NW28G35   29.94R WCI -18
CARRINGTON     LGT SNOW  23  21  93 NW21      29.52F VSB 1   WCI   8
HAZEN          SNOW      14   9  79 W30G39    29.75R VSB 1/2 WCI  -7
RUGBY          MIX PCPN  25  25 100 N14       29.57R WCI  13
STANLEY        LGT SNOW  12  12 100 NW25G43   29.75R VSB 3/4 WCI  -8
TIOGA          SNOW      10  10 100 NW33G41   29.81R VSB 1/2 WCI -13
WATFORD CITY   LGT SNOW   9   5  85 NW24G36   29.86S VSB 1   WCI -12
$$

CITY           SKY/WX    TMP DP  RH WIND       PRES   REMARKS
GRAND FORKS    SNOW      30  27  88 NE20      29.41F VSB 1/2 WCI  17
GRAND FORKS AF SNOW      29  28  97 NE20      29.42F VSB 1/2 WCI  16
DEVILS LAKE    FLURRIES  27  26  96 N22G31    29.49S WCI  13
FARGO          CLOUDY    33  31  92 SW18G26   29.39F FOG
CANDO          LGT SNOW  27  27 100 NE18G26   29.56F WCI  13
CAVALIER         N/A     30  28  93 N16G24    29.53F WCI  19
GRAFTON        SNOW      30  30 100 N17       29.49F VSB 1/2 WCI  18
GWINNER          N/A     23  19  86 W24G31    29.55R WCI   7
LANGDON        MIX PCPN  28  28 100 MISG      29.52F
ROLLA          LGT SNOW  25  25 100 NE25      29.58F WCI   9
WALHALLA       FLURRIES  28  28 100 N18G25    29.57F WCI  16
$$

CITY           SKY/WX    TMP DP  RH WIND       PRES   REMARKS
ABERDEEN       PTCLDY    17   9  70 W21G32    29.71R WCI   0
MOBRIDGE       CLEAR     13   5  70 NW30G41   29.75R BLWGSNOWWCI  -8
BUFFALO          N/A      9   2  73 NW38G48   29.79F WCI -16
RAPID CITY     CLEAR     17   4  56 NW17      29.88R WCI   1
GLASGOW        CLOUDY     7   0  73 W28       30.05R WCI -16
SIDNEY         LGT SNOW   8   3  80 NW31G40   29.93S WCI -15
WOLF POINT     CLOUDY    10   1  67 NW22G29   30.06R WCI -10
GLENDIVE       CLOUDY     7   0  73 NW25G36   29.98R WCI -15
MILES CITY     CLOUDY     8  -1  66 NW16      30.05R WCI -10
BAKER          CLOUDY     6  -1  73 NW25G35   29.93S WCI -16
$$

CITY           SKY/WX    TMP DP  RH WIND       PRES   REMARKS
BILLINGS       CLOUDY    16   5  62 W7        30.01R WCI   6
GREAT FALLS    MOCLDY     2  -2  83 W6        30.09S WCI  -9
REGINA         FLURRIES   9   3  78 NW20G25   29.98R WCI -11
ESTEVAN        SNOW      12   9  85 NW33      29.83R VSB 1/4 WCI -10
$$




USA.gov is the U.S. government's official web portal to all federal, state and local government web resources and services.